COSMOS 1354

Satellite information

Favourite Embed

Satellite Type and Status

PAYLOADIN ORBIT

Key statistics

Satellite COSMOS 1354 at a glance.

Uptime

15775

Days in orbit

Revolutions

≈ 14.3

Per day

Orbit

LEO

Low Earth Orbit

Inclination

74.0

Latest

Satellite identification and parameters

Extended collection of information and parameters for COSMOS 1354.

Object identification

Identified? True

Debris? False

Object name: COSMOS 1354

International designator: 1982-037A

Object number (NORAD): 13148

Object ID (CCSDS): 13148

Country: COMMONWEALTH OF INDEPENDENT STATES (CIS)

Current information (Y/N): Y

RCS size: LARGE

Orbital parameters

Period: 100.511 minutes

Inclination: 74.0382 deg

SMA: 7160.937 km

Apoapsis: 790.114 km

Periapsis: 775.49 km

RAAN: 17.934 deg

Eccentricy: 0.0010211

Argument of periapsis: 270.5352 deg

Mean anomaly: 89.4629 deg

Mean motion: 14.32675851 rev/day

Mean motion (dot): 0.00000095 rev/day2

B* drag term: 0.000044603 1/REarth

Two-line elements (TLE)

Creation date: July 5, 2025, 11:06 p.m.

Reference frame: TEME

Reference center: EARTH

Epoch: July 5, 2025, 9:36 p.m. UTC

TLE line 0: 0 COSMOS 1354

TLE line 1: 1 13148U 82037A 25186.90017910 .00000095 00000-0 44603-4 0 9991

TLE line 2: 2 13148 74.0382 17.9340 0010211 270.5352 89.4629 14.32675851255446

Live tracking on map

Real-time ground track for satellite COSMOS 1354.

In-orbit conjunctions

A list of the most updated potential collisions computed for object COSMOS 1354.

Target Orbit TCA Probability of collision Miss distance Type
DMSP 5D-2 F13 DEB SSO 2025-07-04 22:23:04 0.0002267302 609.0 (m) DEBRIS
FENGYUN 1C DEB SSO 2025-06-15 03:16:36 0.001697733 140.0 (m) DEBRIS
OSCAR 17 (DOVE) SSO 2025-03-16 10:27:43 0.0001246819 302.0 (m) PAYLOAD
CZ-6A DEB SSO 2025-03-04 14:18:29 0.000113807 194.0 (m) DEBRIS
COSMOS 2251 DEB LEO 2024-12-31 05:18:57 0.0003115316 553.0 (m) DEBRIS

Associated space launch

Military communications satellite

COSMOS 1354 was lifted into orbit during the mission ‘Kosmos-3M | Strela-2M 27’, on board a Kosmos-3M space rocket.

The launch took place on April 28, 1982, 2:52 a.m. from 132/1 (132L).

For more information about the launch, click the button.

Launch to space Kosmos-3M | Strela-2M 27
Kosmos-3M | Strela-2M 27

Agency: N/A

Status: Launch Successful

Launch date: April 28, 1982, 2:52 a.m. UTC

Rocket: Kosmos-3M

Launch pad: 132/1 (132L)

Location: Plesetsk Cosmodrome, Russian Federation

...

Latest news about this satellite

There are no fresh news available about this satellite. Check back as we update our databases every day.


Newsletter sign-up

Weekly statistics, charts and insights to help you stay on top of the space industry.